This demonstration page uses our WeatherBlox Daily Observations layout. Learn more.

Left ArrowRight Arrow

34.02893, -84.19858

Hourly Observations for March 4, 2016

Temp ( °F °C ) Dew Point ( °F °C ) Humidity (%) Winds ( mph kmh ) Pressure ( in mb ) Visibility ( mi km ) Precip ( " mm )
12:53 am 00:53 Cloudy with Mist and Fog 38 3.3 38 3.3 100 100 N 6 9 30.02 1017 5 8 0.00 0.00
1:17 am 01:17 Cloudy with Mist and Fog 38 3.3 38 3.3 100 100 N 3 6 30.03 1017 2 3 0.00 0.00
1:41 am 01:41 Cloudy with Mist and Fog 39 3.9 38 3.3 96 96 NNW 5 7 30.03 1017 4 6 0.00 0.00
1:53 am 01:53 Cloudy with Mist and Fog 39 3.9 38 3.3 96 96 N 5 7 30.02 1017 5 8 0.00 0.00
2:09 am 02:09 Cloudy with Mist and Fog 39 3.9 38 3.3 96 96 N 3 6 30.00 1016 5 8 0.00 0.00
2:26 am 02:26 Cloudy with Mist and Fog 39 4 37 3 93 93 N 5 7 30.00 1016 4 6 0.00 0.00
2:53 am 02:53 Cloudy with Mist and Fog 39 3.9 38 3.3 96 96 N 3 6 30.00 1016 5 8 0.00 0.00
3:31 am 03:31 Cloudy with Mist and Fog 39 3.9 38 3.3 96 96 NW 6 9 30.00 1016 6 10 0.00 0.00
3:53 am 03:53 Cloudy 39 3.9 38 3.3 96 96 NW 6 9 30.01 1016 7 11 0.00 0.00
4:53 am 04:53 Cloudy with Mist and Fog 39 3.9 38 3.3 96 96 NW 6 9 30.01 1016 6 10 0.00 0.00
5:53 am 05:53 Cloudy with Mist and Fog 40 4.4 39 3.9 97 97 W 6 9 30.03 1017 6 10 0.00 0.00
6:31 am 06:31 Cloudy 41 5 40 4.4 96 96 NW 9 15 30.03 1017 7 11 0.00 0.00
6:53 am 06:53 Cloudy 41 5 39 3.9 93 93 WNW 8 13 30.05 1018 9 14 0.00 0.00
7:09 am 07:09 Mostly Cloudy 40 4.4 39 3.9 97 97 WNW 5 7 30.06 1018 9 14 0.00 0.00
7:24 am 07:24 Partly Cloudy 39 4 37 3 93 93 WNW 5 7 30.06 1018 8 13 0.00 0.00
7:53 am 07:53 Partly Cloudy 42 5.6 39 3.9 89 89 WNW 9 15 30.06 1018 10 16 0.00 0.00
8:37 am 08:37 Mostly Cloudy 43 6.1 38 3.3 82 82 NW 17 28 30.09 1019 10 16 0.00 0.00
8:53 am 08:53 Cloudy 43 6.1 38 3.3 82 82 NW 12 19 30.09 1019 10 16 0.00 0.00
9:53 am 09:53 Cloudy 45 7.2 38 3.3 77 77 NW 12 19 30.10 1019 10 16 0.00 0.00
10:53 am 10:53 Mostly Cloudy 47 8.3 39 3.9 74 74 NNW 14 22 30.12 1020 10 16 0.00 0.00
11:53 am 11:53 Mostly Cloudy 47 8.3 38 3.3 71 71 WNW 13 20 30.14 1021 10 16 0.00 0.00
12:24 pm 12:24 Partly Cloudy 48 9 39 4 71 71 NW 8 13 30.15 1021 10 16 0.00 0.00
12:53 pm 12:53 Partly Cloudy 50 10 40 4.4 68 68 WNW 10 17 30.13 1020 10 16 0.00 0.00
1:53 pm 13:53 Mostly Sunny 54 12.2 40 4.4 59 59 NNW 10 17 30.10 1019 10 16 0.00 0.00
2:53 pm 14:53 Mostly Sunny 54 12.2 40 4.4 59 59 NW 14 22 30.09 1019 10 16 0.00 0.00
3:53 pm 15:53 Mostly Sunny 54 12.2 38 3.3 55 55 NNW 13 20 30.09 1019 10 16 0.00 0.00
4:53 pm 16:53 Sunny 53 11.7 38 3.3 57 57 NW 15 24 30.10 1019 10 16 0.00 0.00
5:53 pm 17:53 Sunny 52 11.1 38 3.3 59 59 NNW 12 19 30.12 1020 10 16 0.00 0.00
6:53 pm 18:53 Clear 49 9.4 36 2.2 61 61 NW 12 19 30.12 1020 10 16 0.00 0.00
7:53 pm 19:53 Clear 47 8.3 35 1.7 63 63 NNW 9 15 30.13 1020 10 16 0.00 0.00
8:53 pm 20:53 Clear 45 7.2 35 1.7 68 68 N 7 11 30.16 1021 10 16 0.00 0.00
9:53 pm 21:53 Clear 44 6.7 35 1.7 71 71 NNW 5 7 30.16 1021 10 16 0.00 0.00
10:53 pm 22:53 Clear 42 5.6 34 1.1 73 73 NW 3 6 30.15 1021 10 16 0.00 0.00
11:53 pm 23:53 Clear 38 3.3 34 1.1 86 86 Calm 30.16 1021 10 16 0.00 0.00

Powered by AerisWeather